Regional Weather Roundup
Issued by NWS Newport/Morehead, NC

Current Version | Previous Version | Text Only | Print | Product List | Glossary On
Versions: 1 2 3 4 5 6 7 8 9 10 11 12 13 14 15 16 17 18 19 20 21 22 23 24 25 26 27 28 29 30 31 32 33 34 35 36 37 38 39 40 41 42 43 44 45 46 47 48 49 50
000
ASUS42 KMHX 021525
RWRMHX
WEATHER ROUNDUP FOR EASTERN NORTH CAROLINA
NATIONAL WEATHER SERVICE NEWPORT/MOREHEAD CITY NC
1100 AM EDT THU JUL 02 2015

NOTE: "FAIR" INDICATES FEW OR NO CLOUDS BELOW 12,000 FEET
WITH NO SIGNIFICANT WEATHER AND/OR OBSTRUCTIONS TO VISIBILITY

NCZ015>017-031-032-045>047-102-103-021600-
NORTH COAST

CITY           SKY/WX    TMP DP  RH WIND       PRES   REMARKS
EDENTON        NOT AVBL
ELIZABETH CITY PTSUNNY   81  74  79 SW8       29.91F
KITTY HAWK     NOT AVBL
MANTEO         NOT AVBL

$$

NCZ045>047-081-094-103-104-021600-
CENTRAL COAST

CITY           SKY/WX    TMP DP  RH WIND       PRES   REMARKS
FRISCO         SUNNY     83  76  79 SW9       29.95F
SWANQUARTER      N/A     86 N/A N/A SW7G13    29.88F

$$

NCZ095-097-098-100-101-021600-
SOUTHERN COAST

CITY           SKY/WX    TMP DP  RH WIND       PRES   REMARKS
BEAUFORT       MOSUNNY   83  74  74 SW16      29.95F
CEDAR ISLAND     N/A     90 N/A N/A S9G15     29.97S
JACKSONVILLE   PTSUNNY   82  69  64 SW7       29.95F
PINEY ISLAND   MOSUNNY  N/A N/A N/A SW12      29.93F
WILMINGTON     SUNNY     85  69  58 SW15      29.96F


$$

NCZ011>013-027>030-043-044-078>080-089-090>093-098-021600-
COASTAL PLAIN

CITY           SKY/WX    TMP DP  RH WIND       PRES   REMARKS
AHOSKIE        CLOUDY    80  73  77 CALM      29.90F
CLINTON        NOT AVBL
ELIZABETHTOWN  MOSUNNY   82  69  64 SW8       29.96
GOLDSBORO      MOSUNNY   84  70  62 SW8       29.91F
GREENVILLE     NOT AVBL
HAVELOCK       MOSUNNY   85  68  56 SW10      29.95F
KENANSVILLE    NOT AVBL
KINSTON        MOSUNNY   84  70  61 SW12      29.94F FOG
NEW BERN       PTSUNNY   85  72  65 SW7       29.95F
RICHLANDS      MOSUNNY   86  68  54 SW8       29.95S
ROCKY MOUNT    PTSUNNY   82  71  69 SW10      29.92F
WASHINGTON     NOT AVBL
WHITEVILLE     NOT AVBL

$$

AMZ130-135-150-152-154-156-158-170-250-252-270-ANZ085-086-088-633-658-670-021600-
MARINE OBSERVATIONS

STATION/POSITION TIME  TEMP    WIND        PRES    WAVE   SWELL
                       AIR SEA DIR/SP/G            HT/PER HT/PER
                 (UTC) (F)     (DEG/KT/KT) (MB)    (FT/S) (FT/S)
CHESAPEAKE LIGHT 1500   78     200/ 15/ 16 1012.5
64 E VA BEACH    1450   78 77  200/ 12/ 16 1012.7    5/ 8   3/ 8
DUCK             1500   80 61  210/ 11/ 15 1012.0
2 E DUCK         1411      73                N/A     2/ 8
OREGON INLET     1500   82 80  200/ 13/ 16 1013.3
13E OREGON INLT  1500      75                N/A     3/ 8
HATTERAS CG      1500   81 80  210/ 10/ 15 1013.9
DIAMOND BUOY     1450   81 83  230/ 16/ 17 1014.2    4/ 7   2/ 7
CAPE LOOKOUT     1500   83     220/ 12/ 16 1013.9
BEAUFORT LAB     1500   82 80  220/  7/ 11 1013.5
30 SE NEW RVR IN 1408   81 80  250/ 14/ 17 1015.4
27 SE WRIGHTSVLE 1500      81  270/ 12/ 14   N/A
5 SE WRIGHTSVLE  1408   80 80  270/ 10/ 14 1015.1
225 S CAPE HAT   1450   82 80  230/ 19/ 23 1019.3    7/ 7
41 SE CHARLESTON 1450   81 82  230/ 14/ 17 1016.4    4/ 8   2/ 8

$$


USA.gov is the U.S. government's official web portal to all federal, state and local government web resources and services.